Regional Weather Roundup
Issued by NWS Tiyan, Guam

Home | Current Version | Previous Version | Text Only | Print | Product List | Glossary On
Versions: 1 2 3 4 5 6 7 8 9 10 11 12 13 14 15 16 17 18 19 20 21 22 23 24 25 26 27 28 29 30 31 32 33 34 35 36 37 38 39 40 41 42 43 44 45 46 47 48 49 50
247
ASGM40 PGUM 240312
RWRGUM
WEATHER ROUNDUP FOR THE MARIANAS
NATIONAL WEATHER SERVICE TIYAN GU
100 PM CHST THU AUG 24 2017

GUZ001>004-240400-
MARIANA ISLANDS-

CITY           SKY/WX    TMP DP  RH WIND       PRES   REMARKS
GUAM AIRPORT   MOSUNNY   82  79  89 NE9       29.82F HX  93
ANDERSEN AFB   LGT RAIN  81  75  83 E5        29.87F
ROTA AIRPORT   CLOUDY    81  75  83 NE7       29.83F
TINIAN AP      PTSUNNY   79  77  94 E8        29.79F
SAIPAN AP      MOSUNNY   82  77  83 SE8       29.80F HX  91

$$





USA.gov is the U.S. government's official web portal to all federal, state and local government web resources and services.